Location: McFarlands Corners
(41.4117°N, 81.3382°W)
Time: 04:50:16
(UTC+00:00)

Tiros 1 - Pass Details

Date: 21 February 2026
Orbit: 618 x 649 km, 48.4° (Epoch: 5 March)

Event Time Altitude Azimuth Distance (km) Brightness Sun altitude
Rises 12:32:40 0° 231° (SW) 2,919 10.2 2.9°
Reaches altitude 10° 12:35:00 10° 229° (SW) 2,008 9.4 3.4°
Maximum altitude 12:39:35 68° 147° (SSE) 676 7.6 4.2°
Drops below altitude 10° 12:44:09 10° 65° (ENE) 1,997 10.5 5.0°
Sets 12:46:28 0° 63° (ENE) 2,901 11.2 5.4°
